GW3419 Weather Reports


Display with metric or nautical units.
time (UTC)temp
F
wind
direction
speed
MPH
gust
MPH
rain 1hr
in
rain 24hr
in
rain mn
in
humidity
%
barometer
mb
20260502234944 61 24 0.0 3.0 0.00 0.00 0.00 39 1007.5
20260502234441 61 271 0.0 5.0 0.00 0.00 0.00 37 1007.5
20260502233938 61 255 2.0 7.0 0.00 0.00 0.00 36 1007.3
20260502233433 62 44 2.0 6.0 0.00 0.00 0.00 36 1007.8
20260502232931 62 231 0.0 6.0 0.00 0.00 0.00 38 1007.6
20260502232427 62 268 3.0 6.0 0.00 0.00 0.00 35 1007.5
20260502231924 62 114 2.0 6.0 0.00 0.00 0.00 35 1007.6
20260502231421 62 45 1.0 5.0 0.00 0.00 0.00 37 1007.5
20260502230919 62 294 4.0 9.0 0.00 0.00 0.00 35 1007.8
20260502230417 62 126 2.0 6.0 0.00 0.00 0.00 35 1007.7
20260502225915 62 332 3.0 4.0 0.00 0.00 0.00 34 1007.6
20260502225411 62 19 1.0 5.0 0.00 0.00 0.00 35 1007.6
20260502224908 62 29 1.0 8.0 0.00 0.00 0.00 34 1007.8
20260502224403 62 269 3.0 9.0 0.00 0.00 0.00 35 1008.1
20260502223901 62 303 3.0 7.0 0.00 0.00 0.00 34 1008.0
20260502223358 63 261 4.0 10.0 0.00 0.00 0.00 33 1008.2
20260502222856 65 257 1.0 7.0 0.00 0.00 0.00 32 1008.2
20260502222348 64 348 3.0 7.0 0.00 0.00 0.00 32 1008.3
20260502221843 64 232 4.0 5.0 0.00 0.00 0.00 33 1008.2
20260502221340 64 18 2.0 11.0 0.00 0.00 0.00 34 1008.1
20260502220837 65 1 6.0 11.0 0.00 0.00 0.00 32 1008.5
20260502220333 64 111 1.0 14.0 0.00 0.00 0.00 32 1008.3
20260502215830 64 173 2.0 10.0 0.00 0.00 0.00 32 1008.6
20260502215327 64 308 6.0 15.0 0.00 0.00 0.00 32 1008.6
20260502214824 64 322 4.0 11.0 0.00 0.00 0.00 32 1008.7
20260502214320 64 247 2.0 12.0 0.00 0.00 0.00 33 1008.6
20260502213818 64 179 2.0 22.0 0.00 0.00 0.00 33 1008.6
20260502213315 65 216 3.0 13.0 0.00 0.00 0.00 32 1008.6
20260502212814 65 347 3.0 6.0 0.00 0.00 0.00 32 1008.8
20260502212311 65 46 3.0 9.0 0.00 0.00 0.00 32 1008.9
20260502211808 64 97 1.0 6.0 0.00 0.00 0.00 36 1009.1
20260502211258 62 217 4.0 6.0 0.00 0.00 0.00 35 1008.9
20260502210755 63 291 4.0 11.0 0.00 0.00 0.00 32 1009.1
20260502210252 63 302 2.0 10.0 0.00 0.00 0.00 32 1009.1
20260502205749 65 286 3.0 5.0 0.00 0.00 0.00 32 1009.4
20260502205240 65 108 2.0 6.0 0.00 0.00 0.00 30 1009.5
20260502204738 64 247 3.0 8.0 0.00 0.00 0.00 32 1009.2
20260502204235 64 222 2.0 13.0 0.00 0.00 0.00 31 1009.5
20260502203732 64 185 2.0 10.0 0.00 0.00 0.00 32 1009.6
20260502203230 65 280 2.0 5.0 0.00 0.00 0.00 34 1009.5
20260502202724 63 232 4.0 9.0 0.00 0.00 0.00 36 1009.8
20260502202223 63 346 4.0 11.0 0.00 0.00 0.00 31 1009.6
20260502201720 64 359 2.0 7.0 0.00 0.00 0.00 34 1009.9
20260502201216 64 231 2.0 6.0 0.00 0.00 0.00 32 1009.9
20260502200712 63 21 4.0 10.0 0.00 0.00 0.00 33 1010.0
20260502200209 64 205 2.0 8.0 0.00 0.00 0.00 31 1010.2
20260502195707 62 210 2.0 11.0 0.00 0.00 0.00 33 1010.2
20260502195203 63 201 3.0 7.0 0.00 0.00 0.00 37 1010.2
20260502194659 62 24 0.0 9.0 0.00 0.00 0.00 31 1010.3
20260502194150 63 62 3.0 11.0 0.00 0.00 0.00 32 1010.5
20260502193647 63 238 3.0 5.0 0.00 0.00 0.00 37 1010.4
20260502193144 61 175 0.0 8.0 0.00 0.00 0.00 34 1010.4
20260502192639 61 294 6.0 10.0 0.00 0.00 0.00 31 1010.7
20260502192137 63 206 2.0 5.0 0.00 0.00 0.00 38 1010.9
20260502191633 62 219 5.0 7.0 0.00 0.00 0.00 31 1010.9
20260502191125 61 186 1.0 4.0 0.00 0.00 0.00 38 1010.9
20260502190623 61 279 2.0 6.0 0.00 0.00 0.00 35 1010.9
20260502190121 60 259 3.0 14.0 0.00 0.00 0.00 34 1011.0
20260502185615 62 250 2.0 6.0 0.00 0.00 0.00 37 1011.2
20260502185112 61 294 3.0 7.0 0.00 0.00 0.00 34 1011.3
20260502184608 60 248 5.0 9.0 0.00 0.00 0.00 31 1011.3
20260502184103 60 260 4.0 11.0 0.00 0.00 0.00 32 1011.6
20260502183600 60 30 1.0 7.0 0.00 0.00 0.00 35 1011.6
20260502183056 61 233 2.0 9.0 0.00 0.00 0.00 32 1011.7
20260502182552 60 223 2.0 10.0 0.00 0.00 0.00 34 1011.9
20260502182047 60 310 2.0 8.0 0.00 0.00 0.00 33 1011.6
20260502181545 59 53 3.0 12.0 0.00 0.00 0.00 34 1011.8
20260502181043 59 246 3.0 13.0 0.00 0.00 0.00 35 1011.9
20260502180541 60 55 5.0 13.0 0.00 0.00 0.00 34 1012.0
20260502170454 58 247 4.0 10.0 0.00 0.00 0.00 35 1012.7
20260502163937 57 238 1.0 5.0 0.00 0.00 0.00 36 1013.0
20260502163433 55 229 3.0 8.0 0.00 0.00 0.00 38 1013.1
20260502162931 56 320 6.0 13.0 0.00 0.00 0.00 37 1012.9
20260502162428 57 314 11.0 14.0 0.00 0.00 0.00 36 1012.9
20260502161926 56 203 1.0 14.0 0.00 0.00 0.00 38 1013.1
20260502161421 57 310 13.0 14.0 0.00 0.00 0.00 36 1013.2
20260502160919 56 79 2.0 15.0 0.00 0.00 0.00 36 1013.1
20260502160417 55 83 3.0 16.0 0.00 0.00 0.00 39 1013.1
20260502151855 55 336 4.0 14.0 0.00 0.00 0.00 41 1013.2
20260502151351 56 111 2.0 12.0 0.00 0.00 0.00 40 1013.5
20260502150850 56 263 3.0 11.0 0.00 0.00 0.00 40 1013.5
20260502150345 54 194 3.0 9.0 0.00 0.00 0.00 44 1013.5
20260502130734 47 249 2.0 5.0 0.00 0.00 0.00 55 1013.6
20260502130231 48 226 2.0 3.0 0.00 0.00 0.00 57 1013.4
20260502123717 44 262 2.0 6.0 0.00 0.00 0.00 58 1013.7
20260502123214 43 355 0.0 6.0 0.00 0.00 0.00 60 1013.7
20260502122710 43 357 1.0 6.0 0.00 0.00 0.00 60 1013.8
20260502122207 42 235 0.0 4.0 0.00 0.00 0.00 60 1013.8
20260502121705 42 291 3.0 6.0 0.00 0.00 0.00 60 1013.8
20260502121203 41 354 2.0 5.0 0.00 0.00 0.00 61 1013.7
20260502120659 41 4 1.0 5.0 0.00 0.00 0.00 62 1013.6
20260502120156 40 276 2.0 6.0 0.00 0.00 0.00 64 1013.6
20260502115654 38 282 0.0 5.0 0.00 0.00 0.00 66 1013.5
20260502115149 37 256 1.0 6.0 0.00 0.00 0.00 68 1013.7
20260502114646 37 294 3.0 6.0 0.00 0.00 0.00 67 1013.5
20260502114143 37 104 1.0 4.0 0.00 0.00 0.00 67 1013.5
20260502113641 37 174 0.0 7.0 0.00 0.00 0.00 67 1013.6
20260502113139 37 287 0.0 4.0 0.00 0.00 0.00 68 1013.5
20260502112636 35 85 2.0 6.0 0.00 0.00 0.00 70 1013.6
20260502112134 35 53 0.0 3.0 0.00 0.00 0.00 72 1013.7
20260502111631 34 273 0.0 5.0 0.00 0.00 0.00 72 1013.5
20260502111128 34 329 1.0 5.0 0.00 0.00 0.00 72 1013.6
20260502110620 34 276 2.0 6.0 0.00 0.00 0.00 73 1013.4
20260502110117 34 243 0.0 3.0 0.00 0.00 0.00 73 1013.6
20260502105615 33 295 1.0 3.0 0.00 0.00 0.00 74 1013.3
20260502105112 33 337 1.0 2.0 0.00 0.00 0.00 75 1013.4
20260502104609 33 171 1.0 4.0 0.00 0.00 0.00 75 1013.5
20260502104106 33 356 0.0 3.0 0.00 0.00 0.00 75 1013.5
20260502103604 34 197 0.0 3.0 0.00 0.00 0.00 73 1013.4
20260502103102 34 262 3.0 4.0 0.00 0.00 0.00 73 1013.4
20260502102557 34 339 0.0 4.0 0.00 0.00 0.00 73 1013.4
20260502102055 34 252 0.0 5.0 0.00 0.00 0.00 73 1013.4
20260502101553 34 280 0.0 4.0 0.00 0.00 0.00 72 1013.6
20260502101051 35 255 2.0 5.0 0.00 0.00 0.00 72 1013.7
20260502100549 35 227 1.0 3.0 0.00 0.00 0.00 72 1013.6
20260502091524 35 257 0.0 2.0 0.00 0.00 0.00 70 1013.6
20260502091021 36 240 1.0 1.0 0.00 0.00 0.00 70 1013.5
20260502090518 36 217 0.0 2.0 0.00 0.00 0.00 70 1013.4
20260502071407 37 220 1.0 3.0 0.00 0.00 0.00 66 1013.7
20260502070905 37 225 1.0 3.0 0.00 0.00 0.00 67 1013.7
20260502070402 37 323 0.0 2.0 0.00 0.00 0.00 67 1013.7
20260502065901 37 293 1.0 2.0 0.00 0.00 0.00 66 1013.9
20260502065359 37 244 0.0 2.0 0.00 0.00 0.00 68 1013.9
20260502064856 36 49 0.0 1.0 0.00 0.00 0.00 69 1013.7
20260502064354 36 267 0.0 2.0 0.00 0.00 0.00 69 1013.8
20260502063851 36 345 0.0 2.0 0.00 0.00 0.00 70 1014.1
20260502063349 36 337 2.0 2.0 0.00 0.00 0.00 70 1013.8
20260502062846 36 310 0.0 2.0 0.00 0.00 0.00 68 1013.8
20260502062343 37 269 0.0 2.0 0.00 0.00 0.00 69 1014.0
20260502061842 37 282 1.0 2.0 0.00 0.00 0.00 69 1014.0
20260502061339 36 273 1.0 2.0 0.00 0.00 0.00 71 1014.0
20260502060835 36 350 0.0 1.0 0.00 0.00 0.00 71 1014.0
20260502060330 35 25 0.0 3.0 0.00 0.00 0.00 73 1014.1
20260502055828 36 0 0.0 2.0 0.00 0.00 0.00 70 1014.0
20260502055326 37 346 0.0 2.0 0.00 0.00 0.00 67 1013.9
20260502054825 38 297 0.0 2.0 0.00 0.00 0.00 66 1013.8
20260502054323 38 208 1.0 2.0 0.00 0.00 0.00 67 1013.7
20260502053820 38 258 1.0 2.0 0.00 0.00 0.00 67 1013.9
20260502053317 38 259 0.0 2.0 0.00 0.00 0.00 66 1013.9
20260502052815 37 290 0.0 1.0 0.00 0.00 0.00 66 1013.8
20260502052312 37 254 0.0 1.0 0.00 0.00 0.00 66 1013.8
20260502051810 38 224 0.0 1.0 0.00 0.00 0.00 66 1013.8
20260502051309 38 255 1.0 2.0 0.00 0.00 0.00 66 1013.7
20260502050804 38 321 0.0 2.0 0.00 0.00 0.00 66 1013.8
20260502050301 38 304 0.0 1.0 0.00 0.00 0.00 66 1013.7
20260502045758 38 184 0.0 1.0 0.00 0.00 0.00 66 1013.7
20260502045255 39 149 0.0 1.0 0.00 0.00 0.00 65 1013.9
20260502044752 39 203 0.0 2.0 0.00 0.00 0.00 64 1013.7
20260502044248 39 197 0.0 2.0 0.00 0.00 0.00 63 1013.8
20260502043745 39 193 0.0 1.0 0.00 0.00 0.00 62 1013.8
20260502043243 39 197 0.0 2.0 0.00 0.00 0.00 62 1013.6
20260502042742 39 171 0.0 1.0 0.00 0.00 0.00 64 1013.8
20260502042240 39 279 0.0 1.0 0.00 0.00 0.00 62 1013.7
20260502041737 39 234 0.0 2.0 0.00 0.00 0.00 62 1013.7
20260502041234 38 286 0.0 2.0 0.00 0.00 0.00 63 1013.8
20260502040731 36 287 0.0 2.0 0.00 0.00 0.00 69 1013.9
20260502040228 36 9 0.0 1.0 0.00 0.00 0.00 68 1013.7
20260502035724 37 311 0.0 2.0 0.00 0.00 0.00 67 1013.7
20260502035221 37 325 0.0 2.0 0.00 0.00 0.00 67 1013.7
20260502034718 37 325 0.0 2.0 0.00 0.00 0.00 67 1013.9
20260502034217 37 13 0.0 0.0 0.00 0.00 0.00 67 1013.8
20260502033714 37 326 0.0 1.0 0.00 0.00 0.00 67 1013.9
20260502033212 38 359 1.0 2.0 0.00 0.00 0.00 66 1013.9
20260502032708 38 4 1.0 2.0 0.00 0.00 0.00 64 1013.7
20260502032204 39 338 1.0 1.0 0.00 0.00 0.00 62 1013.7
20260502031702 39 336 0.0 1.0 0.00 0.00 0.00 62 1013.7
20260502031200 40 345 1.0 2.0 0.00 0.00 0.00 61 1013.9
20260502030659 39 339 1.0 3.0 0.00 0.00 0.00 60 1013.7
20260502030156 39 334 0.0 1.0 0.00 0.00 0.00 62 1013.8
20260502025653 38 325 0.0 1.0 0.00 0.00 0.00 61 1013.9
20260502025151 39 19 0.0 1.0 0.00 0.00 0.00 60 1013.7
20260502024649 40 304 0.0 1.0 0.00 0.00 0.00 58 1013.9
20260502024147 41 19 0.0 2.0 0.00 0.00 0.00 55 1013.6
20260502023644 41 326 0.0 2.0 0.00 0.00 0.00 53 1013.7
20260502023141 40 312 2.0 2.0 0.00 0.00 0.00 55 1013.5
20260502022638 39 327 0.0 2.0 0.00 0.00 0.00 57 1013.8
20260502022135 40 304 0.0 1.0 0.00 0.00 0.00 56 1013.6
20260502021633 41 315 0.0 2.0 0.00 0.00 0.00 56 1013.6
20260502021130 42 318 0.0 2.0 0.00 0.00 0.00 53 1013.5
20260502020627 43 295 0.0 2.0 0.00 0.00 0.00 52 1013.4
20260502020123 43 249 0.0 2.0 0.00 0.00 0.00 50 1013.5
20260502015622 44 262 0.0 2.0 0.00 0.00 0.00 49 1013.5
20260502015118 45 297 0.0 2.0 0.00 0.00 0.00 50 1013.6
20260502014615 46 304 0.0 2.0 0.00 0.00 0.00 45 1013.2
20260502014112 46 347 1.0 2.0 0.00 0.00 0.00 45 1013.2
20260502013608 47 353 2.0 3.0 0.00 0.00 0.00 44 1013.4
20260502013104 47 348 2.0 5.0 0.00 0.00 0.00 43 1013.2
20260502012602 47 349 0.0 3.0 0.00 0.00 0.00 43 1013.2
20260502012059 47 347 0.0 4.0 0.00 0.00 0.00 44 1013.1
20260502011555 47 341 3.0 5.0 0.00 0.00 0.00 44 1013.2
20260502011052 47 344 2.0 3.0 0.00 0.00 0.00 44 1013.2
20260502010549 47 345 2.0 3.0 0.00 0.00 0.00 44 1013.1
20260502010045 47 3 1.0 3.0 0.00 0.00 0.00 44 1013.0
20260502005543 48 348 3.0 3.0 0.00 0.00 0.00 44 1013.1
20260502005041 48 6 3.0 6.0 0.00 0.00 0.00 44 1013.1
20260502004536 48 349 2.0 5.0 0.00 0.00 0.00 43 1013.1
20260502004033 48 340 2.0 7.0 0.00 0.00 0.00 43 1012.9
20260502003531 48 353 3.0 8.0 0.00 0.00 0.00 41 1013.0
20260502003028 48 7 2.0 5.0 0.00 0.00 0.00 42 1012.9
20260502002524 49 0 3.0 6.0 0.00 0.00 0.00 41 1013.0
20260502002021 49 344 5.0 11.0 0.00 0.00 0.00 39 1013.0
20260502001519 50 359 4.0 9.0 0.00 0.00 0.00 38 1012.7
20260502001016 50 328 6.0 11.0 0.00 0.00 0.00 36 1012.8
20260502000515 50 28 5.0 8.0 0.00 0.00 0.00 38 1012.8
20260502000011 50 25 6.0 11.0 0.00 0.00 0.00 37 1013.1
20260501235507 49 13 5.0 9.0 0.00 0.00 0.00 38 1012.8